sat.trackr.live / text

‹ back to catalog

KUIPER-00627

NORAD 69782 · 2026-151V

PAYLOAD ACTIVE UNKNOWN

§ Identity

Operator
Country
US
Launch date
2026-07-02
Launch site
AFETR
Launch vehicle
Mass (kg)
RCS (m²)

External: N2YO · Heavens-Above · Gunter

§ Orbital elements

Epoch: 2026-09-20T04:00:03.000096Z

Period
97.02 min
Inclination
51.8986°
Eccentricity
0.0008277
Mean motion
14.84240044 rev/d
Perigee alt
610.2 km
Apogee alt
621.8 km
Semi-major
6,994.1 km
B*
-6.6066e-3
RAAN
223.2476°
Arg perigee
84.5667°
Mean anomaly
266.0509°
Rev number
347

§ Raw data

KUIPER-006271 69782U 26151V   26263.16670139 -.00055671  00000+0 -66066-2 0  99902 69782  51.8986 223.2476 0008277  84.5667 266.0509 14.84240044  3470

JSON: /api/v1/satellites/69782 · /tle

For live sub-satellite position, see the globe view (requires WebGL).

§ Visibility from observer

Set your observer location to see the next 7 days of passes ≥ 10°. The values pass through the URL so the page stays shareable.

No JS? Fill the form by hand. The geolocation button needs JavaScript.